Weather History for Jacksonville, FL

Change the Weather History Date:

Friday, March 21, 2014

  Actual Average Record
Temperature  
Mean Temperature 63 °F 63 °F  
Max Temperature 75 °F 75 °F 90 °F (1907)
Min Temperature 51 °F 51 °F 30 °F (1971)
Degree Days  
Heating Degree Days 2 4  
Month to date heating degree days 151 120  
Since 1 July heating degree days 1228 1253  
Cooling Degree Days 0 2  
Month to date cooling degree days 14 34  
Year to date cooling degree days 44 63  
Growing Degree Days 13 (Base 50)    
Moisture  
Dew Point 46 °F    
Average Humidity 62    
Maximum Humidity 100    
Minimum Humidity 23    
Precipitation  
Precipitation 0.00 in 0.12 in 0.95 in (1957)
Month to date precipitation 3.83 2.77  
Year to date precipitation 13.54 9.26  
Snow  
Snow 0.00 in 0.00 in 0.00 in (2002)
Month to date snowfall 0.0 0.0  
Since 1 July snowfall 0.0 T  
Snow Depth 0.00 in    
Sea Level Pressure  
Sea Level Pressure 30.09 in    
Wind  
Wind Speed 5 mph (ENE)    
Max Wind Speed 14 mph    
Max Gust Speed 16 mph    
Visibility 10 miles    
Events      
T = Trace of Precipitation, MM = Missing Value Source: NWS Daily Summary

Daily Weather History Graph

Daily Weather History Graph

Search for Another Location

Airport:

Trip Planner

Search our weather history database for the weather conditions in past years. The results will help you decide how hot, cold, wet, or windy it might be!

Date:

Astronomy

Mar. 21, 2014 Rise Set
Actual Time 7:29 AM EDT 7:38 PM EDT
Civil Twilight 7:05 AM EDT 8:02 PM EDT
Nautical Twilight 6:37 AM EDT 8:30 PM EDT
Astronomical Twilight 6:09 AM EDT 8:59 PM EDT
Moon No Moon Rise 10:38 AM EDT (3/21)
Length of Visible Light 12h 57m
Length of Day
12h 09m
Waning Gibbous, 75% of the Moon is Illuminated
Mar 21
Waning Gibbous
Mar 23
Last Quarter
Mar 30
New
Apr 7
First Quarter
Apr 15
Full

Hourly Weather History & Observations

Time (EDT) Temp. Dew Point Humidity Pressure Visibility Wind Dir Wind Speed Gust Speed Precip Events Conditions
12:56 AM 57.0 °F 52.0 °F 83% 30.07 in 10.0 mi Calm Calm - N/A   Clear
1:56 AM 57.9 °F 52.0 °F 81% 30.08 in 10.0 mi Calm Calm - N/A   Clear
2:56 AM 55.0 °F 52.0 °F 89% 30.06 in 10.0 mi Calm Calm - N/A   Clear
3:56 AM 53.1 °F 52.0 °F 96% 30.05 in 10.0 mi Calm Calm - N/A   Clear
4:56 AM 52.0 °F 51.1 °F 97% 30.05 in 9.0 mi Calm Calm - N/A   Clear
5:56 AM 51.1 °F 50.0 °F 96% 30.06 in 7.0 mi Calm Calm - N/A   Clear
6:56 AM 53.1 °F 48.9 °F 86% 30.08 in 10.0 mi NNE 5.8 mph - N/A   Clear
7:56 AM 52.0 °F 46.0 °F 80% 30.10 in 10.0 mi North 4.6 mph - N/A   Clear
8:56 AM 57.0 °F 46.0 °F 67% 30.12 in 10.0 mi NNE 4.6 mph - N/A   Clear
9:56 AM 63.0 °F 42.1 °F 46% 30.14 in 10.0 mi NE 6.9 mph - N/A   Clear
10:56 AM 68.0 °F 37.0 °F 32% 30.15 in 10.0 mi NE 8.1 mph - N/A   Partly Cloudy
11:56 AM 72.0 °F 37.9 °F 29% 30.15 in 10.0 mi East 6.9 mph - N/A   Partly Cloudy
12:56 PM 73.0 °F 35.1 °F 25% 30.15 in 10.0 mi East 8.1 mph - N/A   Scattered Clouds
1:56 PM 75.0 °F 35.1 °F 23% 30.12 in 10.0 mi East 11.5 mph - N/A   Mostly Cloudy
2:56 PM 73.9 °F 37.0 °F 26% 30.10 in 10.0 mi East 11.5 mph - N/A   Mostly Cloudy
3:56 PM 73.9 °F 39.0 °F 28% 30.07 in 10.0 mi East 9.2 mph - N/A   Mostly Cloudy
4:56 PM 73.0 °F 39.9 °F 30% 30.08 in 10.0 mi East 9.2 mph - N/A   Mostly Cloudy
5:56 PM 70.0 °F 39.9 °F 33% 30.08 in 10.0 mi ENE 12.7 mph - N/A   Mostly Cloudy
6:56 PM 66.0 °F 42.1 °F 42% 30.08 in 10.0 mi East 11.5 mph - N/A   Mostly Cloudy
7:56 PM 61.0 °F 46.9 °F 60% 30.08 in 10.0 mi East 6.9 mph - N/A   Mostly Cloudy
8:56 PM 60.1 °F 51.1 °F 72% 30.08 in 10.0 mi SE 5.8 mph - N/A   Mostly Cloudy
9:56 PM 59.0 °F 54.0 °F 83% 30.09 in 10.0 mi SSE 5.8 mph - N/A   Mostly Cloudy
10:56 PM 57.9 °F 55.0 °F 90% 30.09 in 10.0 mi Calm Calm - N/A   Mostly Cloudy
11:56 PM 57.9 °F 55.9 °F 93% 30.09 in 10.0 mi Calm Calm - N/A   Mostly Cloudy